Location: Ariel
(45.9570°N, 122.5700°W)
Time: 23:26:26
(UTC-07:00)

Transit 2A Rocket - Pass Details

Date: 28 July 2019
Orbit: 590 x 913 km, 66.7° (Epoch: 20 August)

Event Time Altitude Azimuth Distance (km) Brightness Sun altitude
Exits shadow 03:28:09 25° 249° (WSW) 1,673 6.3 -18.6°
Maximum altitude 03:31:15 48° 310° (NW) 1,100 5.8 -18.3°
Drops below altitude 10° 03:36:36 10° 24° (NNE) 2,382 8.8 -17.8°
Sets 03:39:01 0° 31° (NNE) 3,263 10.0 -17.5°
